Location: Unspecified
(42.3650°N, 71.1030°W)
Time: 13:41:20
(UTC+00:00)

Courier 1B - Pass Details

Date: 04 July 2024
Orbit: 962 x 1209 km, 28.3° (Epoch: 25 July)

Event Time Altitude Azimuth Distance (km) Brightness Sun altitude
Rises 03:37:16 0° 251° (WSW) 3,639 10.5 -22.7°
Reaches altitude 10° 03:40:33 10° 236° (SW) 2,707 9.6 -22.9°
Enters shadow 03:41:34 13° 228° (SW) 2,472 9.4 -23.0°
Maximum altitude 03:45:13 21° 190° (S) 2,062 - -23.2°
Drops below altitude 10° 03:50:02 10° 144° (SE) 2,792 - -23.4°
Sets 03:53:29 0° 128° (SE) 3,786 - -23.6°
